owner,sensor,date,latitude,longitude,air_temperature,qcFlag 
DISL,ioos:station:DISL:MHPA:1,2012-11-01T00:00:00Z,30.6671,-87.9365,19.31,1111122 
DISL,ioos:station:DISL:MHPA:1,2012-11-01T00:30:00Z,30.6671,-87.9365,19.15,1111122 
DISL,ioos:station:DISL:MHPA:1,2012-11-01T01:00:00Z,30.6671,-87.9365,18.78,1111122 
DISL,ioos:station:DISL:MHPA:1,2012-11-01T01:30:00Z,30.6671,-87.9365,18.75,1111122 
DISL,ioos:station:DISL:MHPA:1,2012-11-01T02:00:00Z,30.6671,-87.9365,18.46,1111122 
DISL,ioos:station:DISL:MHPA:1,2012-11-01T02:30:00Z,30.6671,-87.9365,18.03,1111122 
DISL,ioos:station:DISL:MHPA:1,2012-11-01T03:00:00Z,30.6671,-87.9365,18.1,1111122 
DISL,ioos:station:DISL:MHPA:1,2012-11-01T03:30:00Z,30.6671,-87.9365,18.22,1111122 
DISL,ioos:station:DISL:MHPA:1,2012-11-01T04:00:00Z,30.6671,-87.9365,18.28,1111122 
DISL,ioos:station:DISL:MHPA:1,2012-11-01T04:30:00Z,30.6671,-87.9365,18.17,1111122 
DISL,ioos:station:DISL:MHPA:1,2012-11-01T05:00:00Z,30.6671,-87.9365,18.01,1111122 
DISL,ioos:station:DISL:MHPA:1,2012-11-01T05:30:00Z,30.6671,-87.9365,18.14,1111122 
DISL,ioos:station:DISL:MHPA:1,2012-11-01T06:00:00Z,30.6671,-87.9365,18.29,1111122 
DISL,ioos:station:DISL:MHPA:1,2012-11-01T06:30:00Z,30.6671,-87.9365,18.21,1111122 
DISL,ioos:station:DISL:MHPA:1,2012-11-01T07:00:00Z,30.6671,-87.9365,18.46,1111122 
DISL,ioos:station:DISL:MHPA:1,2012-11-01T07:30:00Z,30.6671,-87.9365,18.95,1111122 
DISL,ioos:station:DISL:MHPA:1,2012-11-01T08:00:00Z,30.6671,-87.9365,18.44,1111122 
DISL,ioos:station:DISL:MHPA:1,2012-11-01T08:30:00Z,30.6671,-87.9365,18.02,1111122 
DISL,ioos:station:DISL:MHPA:1,2012-11-01T09:00:00Z,30.6671,-87.9365,17.61,1111122 
DISL,ioos:station:DISL:MHPA:1,2012-11-01T09:30:00Z,30.6671,-87.9365,17.02,1111122 
DISL,ioos:station:DISL:MHPA:1,2012-11-01T10:00:00Z,30.6671,-87.9365,16.11,1111122 
DISL,ioos:station:DISL:MHPA:1,2012-11-01T10:30:00Z,30.6671,-87.9365,15.51,1111122 
DISL,ioos:station:DISL:MHPA:1,2012-11-01T11:00:00Z,30.6671,-87.9365,14.91,1111122 
DISL,ioos:station:DISL:MHPA:1,2012-11-01T11:30:00Z,30.6671,-87.9365,14.37,1111122 
DISL,ioos:station:DISL:MHPA:1,2012-11-01T12:00:00Z,30.6671,-87.9365,13.8,1111122 
DISL,ioos:station:DISL:MHPA:1,2012-11-01T12:30:00Z,30.6671,-87.9365,13.49,1111122 
DISL,ioos:station:DISL:MHPA:1,2012-11-01T13:00:00Z,30.6671,-87.9365,14.49,1111122 
DISL,ioos:station:DISL:MHPA:1,2012-11-01T13:30:00Z,30.6671,-87.9365,15.12,1111122 
DISL,ioos:station:DISL:MHPA:1,2012-11-01T14:00:00Z,30.6671,-87.9365,15.49,1111122 
DISL,ioos:station:DISL:MHPA:1,2012-11-01T14:30:00Z,30.6671,-87.9365,16.12,1111122 
DISL,ioos:station:DISL:MHPA:1,2012-11-01T15:00:00Z,30.6671,-87.9365,17.1,1111122 
DISL,ioos:station:DISL:MHPA:1,2012-11-01T15:30:00Z,30.6671,-87.9365,18.33,1111122 
DISL,ioos:station:DISL:MHPA:1,2012-11-01T16:00:00Z,30.6671,-87.9365,19.18,1111122 
DISL,ioos:station:DISL:MHPA:1,2012-11-01T16:30:00Z,30.6671,-87.9365,19.91,1111122 
DISL,ioos:station:DISL:MHPA:1,2012-11-01T17:00:00Z,30.6671,-87.9365,20.6,1111122 
DISL,ioos:station:DISL:MHPA:1,2012-11-01T17:30:00Z,30.6671,-87.9365,21.44,1111122 
DISL,ioos:station:DISL:MHPA:1,2012-11-01T18:00:00Z,30.6671,-87.9365,19.98,1111122 
DISL,ioos:station:DISL:MHPA:1,2012-11-01T18:30:00Z,30.6671,-87.9365,20.51,1111122 
DISL,ioos:station:DISL:MHPA:1,2012-11-01T19:00:00Z,30.6671,-87.9365,20.88,1111122 
DISL,ioos:station:DISL:MHPA:1,2012-11-01T19:30:00Z,30.6671,-87.9365,21.29,1111122 
DISL,ioos:station:DISL:MHPA:1,2012-11-01T20:00:00Z,30.6671,-87.9365,21.33,1111122 
DISL,ioos:station:DISL:MHPA:1,2012-11-01T20:30:00Z,30.6671,-87.9365,21.44,1111122 
DISL,ioos:station:DISL:MHPA:1,2012-11-01T21:00:00Z,30.6671,-87.9365,22.4,1111122 
DISL,ioos:station:DISL:MHPA:1,2012-11-01T21:30:00Z,30.6671,-87.9365,22.14,1111122 
DISL,ioos:station:DISL:MHPA:1,2012-11-01T22:00:00Z,30.6671,-87.9365,21.66,1111122 
DISL,ioos:station:DISL:MHPA:1,2012-11-01T22:30:00Z,30.6671,-87.9365,20.57,1111122 
DISL,ioos:station:DISL:MHPA:1,2012-11-01T23:00:00Z,30.6671,-87.9365,19.98,1111122 
DISL,ioos:station:DISL:MHPA:1,2012-11-01T23:30:00Z,30.6671,-87.9365,19.75,1111122 
DISL,ioos:station:DISL:MHPA:1,2012-11-02T00:00:00Z,30.6671,-87.9365,19.81,1111122 
DISL,ioos:station:DISL:MHPA:1,2012-11-02T00:30:00Z,30.6671,-87.9365,19.48,1111122 
DISL,ioos:station:DISL:MHPA:1,2012-11-02T01:00:00Z,30.6671,-87.9365,19.19,1111122 
DISL,ioos:station:DISL:MHPA:1,2012-11-02T01:30:00Z,30.6671,-87.9365,19.02,1111122 
DISL,ioos:station:DISL:MHPA:1,2012-11-02T02:00:00Z,30.6671,-87.9365,18.86,1111122 
DISL,ioos:station:DISL:MHPA:1,2012-11-02T02:30:00Z,30.6671,-87.9365,18.71,1111122 
DISL,ioos:station:DISL:MHPA:1,2012-11-02T03:00:00Z,30.6671,-87.9365,18.58,1111122 
DISL,ioos:station:DISL:MHPA:1,2012-11-02T03:30:00Z,30.6671,-87.9365,18.26,1111122 
DISL,ioos:station:DISL:MHPA:1,2012-11-02T04:00:00Z,30.6671,-87.9365,17.48,1111122 
DISL,ioos:station:DISL:MHPA:1,2012-11-02T04:30:00Z,30.6671,-87.9365,16.86,1111122 
DISL,ioos:station:DISL:MHPA:1,2012-11-02T05:00:00Z,30.6671,-87.9365,16.49,1111122 
DISL,ioos:station:DISL:MHPA:1,2012-11-02T05:30:00Z,30.6671,-87.9365,16.17,1111122 
DISL,ioos:station:DISL:MHPA:1,2012-11-02T06:00:00Z,30.6671,-87.9365,16.09,1111122 
DISL,ioos:station:DISL:MHPA:1,2012-11-02T06:30:00Z,30.6671,-87.9365,15.96,1111122 
DISL,ioos:station:DISL:MHPA:1,2012-11-02T07:00:00Z,30.6671,-87.9365,15.66,1111122 
DISL,ioos:station:DISL:MHPA:1,2012-11-02T07:30:00Z,30.6671,-87.9365,15.67,1111122 
DISL,ioos:station:DISL:MHPA:1,2012-11-02T08:00:00Z,30.6671,-87.9365,15.51,1111122 
DISL,ioos:station:DISL:MHPA:1,2012-11-02T08:30:00Z,30.6671,-87.9365,15.45,1111122 
DISL,ioos:station:DISL:MHPA:1,2012-11-02T09:00:00Z,30.6671,-87.9365,14.95,1111122 
DISL,ioos:station:DISL:MHPA:1,2012-11-02T09:30:00Z,30.6671,-87.9365,15.19,1111122 
DISL,ioos:station:DISL:MHPA:1,2012-11-02T10:00:00Z,30.6671,-87.9365,15.17,1111122 
DISL,ioos:station:DISL:MHPA:1,2012-11-02T10:30:00Z,30.6671,-87.9365,15.38,1111122 
DISL,ioos:station:DISL:MHPA:1,2012-11-02T11:00:00Z,30.6671,-87.9365,15.4,1111122 
DISL,ioos:station:DISL:MHPA:1,2012-11-02T11:30:00Z,30.6671,-87.9365,15.19,1111122 
DISL,ioos:station:DISL:MHPA:1,2012-11-02T12:00:00Z,30.6671,-87.9365,15.22,1111122 
DISL,ioos:station:DISL:MHPA:1,2012-11-02T12:30:00Z,30.6671,-87.9365,15.78,1111122 
DISL,ioos:station:DISL:MHPA:1,2012-11-02T13:00:00Z,30.6671,-87.9365,16.96,1111122 
DISL,ioos:station:DISL:MHPA:1,2012-11-02T13:30:00Z,30.6671,-87.9365,17.87,1111122 
DISL,ioos:station:DISL:MHPA:1,2012-11-02T14:00:00Z,30.6671,-87.9365,18.22,1111122 
DISL,ioos:station:DISL:MHPA:1,2012-11-02T14:30:00Z,30.6671,-87.9365,18.72,1111122 
DISL,ioos:station:DISL:MHPA:1,2012-11-02T15:00:00Z,30.6671,-87.9365,19.12,1111122 
DISL,ioos:station:DISL:MHPA:1,2012-11-02T15:30:00Z,30.6671,-87.9365,19.42,1111122 
DISL,ioos:station:DISL:MHPA:1,2012-11-02T16:00:00Z,30.6671,-87.9365,20.09,1111122 
DISL,ioos:station:DISL:MHPA:1,2012-11-02T16:30:00Z,30.6671,-87.9365,20.78,1111122 
DISL,ioos:station:DISL:MHPA:1,2012-11-02T17:00:00Z,30.6671,-87.9365,21.33,1111122 
DISL,ioos:station:DISL:MHPA:1,2012-11-02T17:30:00Z,30.6671,-87.9365,21.68,1111122 
DISL,ioos:station:DISL:MHPA:1,2012-11-02T18:00:00Z,30.6671,-87.9365,20.88,1111122 
DISL,ioos:station:DISL:MHPA:1,2012-11-02T18:30:00Z,30.6671,-87.9365,20.37,1111122 
DISL,ioos:station:DISL:MHPA:1,2012-11-02T19:00:00Z,30.6671,-87.9365,20.58,1111122 
DISL,ioos:station:DISL:MHPA:1,2012-11-02T19:30:00Z,30.6671,-87.9365,20.66,1111122 
DISL,ioos:station:DISL:MHPA:1,2012-11-02T20:00:00Z,30.6671,-87.9365,20.69,1111122 
DISL,ioos:station:DISL:MHPA:1,2012-11-02T20:30:00Z,30.6671,-87.9365,21.04,1111122 
DISL,ioos:station:DISL:MHPA:1,2012-11-02T21:00:00Z,30.6671,-87.9365,21.06,1111122 
DISL,ioos:station:DISL:MHPA:1,2012-11-02T21:30:00Z,30.6671,-87.9365,21.55,1111122 
DISL,ioos:station:DISL:MHPA:1,2012-11-02T22:00:00Z,30.6671,-87.9365,21.54,1111122 
DISL,ioos:station:DISL:MHPA:1,2012-11-02T22:30:00Z,30.6671,-87.9365,21.55,1111122 
DISL,ioos:station:DISL:MHPA:1,2012-11-02T23:00:00Z,30.6671,-87.9365,21.27,1111122 
DISL,ioos:station:DISL:MHPA:1,2012-11-02T23:30:00Z,30.6671,-87.9365,21.27,1111122 
DISL,ioos:station:DISL:MHPA:1,2012-11-03T00:00:00Z,30.6671,-87.9365,21.59,1111122 
DISL,ioos:station:DISL:MHPA:1,2012-11-03T00:30:00Z,30.6671,-87.9365,21.21,1111122 
DISL,ioos:station:DISL:MHPA:1,2012-11-03T01:00:00Z,30.6671,-87.9365,20.85,1111122 
DISL,ioos:station:DISL:MHPA:1,2012-11-03T01:30:00Z,30.6671,-87.9365,21.07,1111122 
DISL,ioos:station:DISL:MHPA:1,2012-11-03T02:00:00Z,30.6671,-87.9365,20.78,1111122 
DISL,ioos:station:DISL:MHPA:1,2012-11-03T02:30:00Z,30.6671,-87.9365,20.59,1111122 
DISL,ioos:station:DISL:MHPA:1,2012-11-03T03:00:00Z,30.6671,-87.9365,20.54,1111122 
DISL,ioos:station:DISL:MHPA:1,2012-11-03T03:30:00Z,30.6671,-87.9365,20.32,1111122 
DISL,ioos:station:DISL:MHPA:1,2012-11-03T04:00:00Z,30.6671,-87.9365,20.4,1111122 
DISL,ioos:station:DISL:MHPA:1,2012-11-03T04:30:00Z,30.6671,-87.9365,20.26,1111122 
DISL,ioos:station:DISL:MHPA:1,2012-11-03T05:00:00Z,30.6671,-87.9365,20.24,1111122 
DISL,ioos:station:DISL:MHPA:1,2012-11-03T05:30:00Z,30.6671,-87.9365,20.15,1111122 
DISL,ioos:station:DISL:MHPA:1,2012-11-03T06:00:00Z,30.6671,-87.9365,20.18,1111122 
DISL,ioos:station:DISL:MHPA:1,2012-11-03T06:30:00Z,30.6671,-87.9365,20.08,1111122 
DISL,ioos:station:DISL:MHPA:1,2012-11-03T07:00:00Z,30.6671,-87.9365,20.05,1111122 
DISL,ioos:station:DISL:MHPA:1,2012-11-03T07:30:00Z,30.6671,-87.9365,20.15,1111122 
DISL,ioos:station:DISL:MHPA:1,2012-11-03T08:00:00Z,30.6671,-87.9365,20.0,1111122 
DISL,ioos:station:DISL:MHPA:1,2012-11-03T08:30:00Z,30.6671,-87.9365,19.95,1111122 
DISL,ioos:station:DISL:MHPA:1,2012-11-03T09:00:00Z,30.6671,-87.9365,19.2,1111122 
DISL,ioos:station:DISL:MHPA:1,2012-11-03T09:30:00Z,30.6671,-87.9365,19.25,1111122 
DISL,ioos:station:DISL:MHPA:1,2012-11-03T10:00:00Z,30.6671,-87.9365,18.87,1111122 
DISL,ioos:station:DISL:MHPA:1,2012-11-03T10:30:00Z,30.6671,-87.9365,18.61,1111122 
DISL,ioos:station:DISL:MHPA:1,2012-11-03T11:00:00Z,30.6671,-87.9365,18.66,1111122 
DISL,ioos:station:DISL:MHPA:1,2012-11-03T11:30:00Z,30.6671,-87.9365,18.49,1111122 
DISL,ioos:station:DISL:MHPA:1,2012-11-03T12:00:00Z,30.6671,-87.9365,18.4,1111122 
DISL,ioos:station:DISL:MHPA:1,2012-11-03T12:30:00Z,30.6671,-87.9365,18.73,1111122 
DISL,ioos:station:DISL:MHPA:1,2012-11-03T13:00:00Z,30.6671,-87.9365,19.99,1111122 
DISL,ioos:station:DISL:MHPA:1,2012-11-03T13:30:00Z,30.6671,-87.9365,20.39,1111122 
DISL,ioos:station:DISL:MHPA:1,2012-11-03T14:00:00Z,30.6671,-87.9365,20.68,1111122 
DISL,ioos:station:DISL:MHPA:1,2012-11-03T14:30:00Z,30.6671,-87.9365,20.78,1111122 
DISL,ioos:station:DISL:MHPA:1,2012-11-03T15:00:00Z,30.6671,-87.9365,21.21,1111122 
DISL,ioos:station:DISL:MHPA:1,2012-11-03T15:30:00Z,30.6671,-87.9365,22.16,1111122 
DISL,ioos:station:DISL:MHPA:1,2012-11-03T16:00:00Z,30.6671,-87.9365,22.32,1111122 
DISL,ioos:station:DISL:MHPA:1,2012-11-03T16:30:00Z,30.6671,-87.9365,22.52,1111122 
DISL,ioos:station:DISL:MHPA:1,2012-11-03T17:00:00Z,30.6671,-87.9365,22.19,1111122 
DISL,ioos:station:DISL:MHPA:1,2012-11-03T17:30:00Z,30.6671,-87.9365,22.68,1111122 
DISL,ioos:station:DISL:MHPA:1,2012-11-03T18:00:00Z,30.6671,-87.9365,23.07,1111122 
DISL,ioos:station:DISL:MHPA:1,2012-11-03T18:30:00Z,30.6671,-87.9365,23.64,1111122 
DISL,ioos:station:DISL:MHPA:1,2012-11-03T19:00:00Z,30.6671,-87.9365,23.31,1111122 
DISL,ioos:station:DISL:MHPA:1,2012-11-03T19:30:00Z,30.6671,-87.9365,22.44,1111122 
DISL,ioos:station:DISL:MHPA:1,2012-11-03T20:00:00Z,30.6671,-87.9365,22.54,1111122 
DISL,ioos:station:DISL:MHPA:1,2012-11-03T20:30:00Z,30.6671,-87.9365,22.33,1111122 
DISL,ioos:station:DISL:MHPA:1,2012-11-03T21:00:00Z,30.6671,-87.9365,22.21,1111122 
DISL,ioos:station:DISL:MHPA:1,2012-11-03T21:30:00Z,30.6671,-87.9365,22.24,1111122 
DISL,ioos:station:DISL:MHPA:1,2012-11-03T22:00:00Z,30.6671,-87.9365,22.34,1111122 
DISL,ioos:station:DISL:MHPA:1,2012-11-03T22:30:00Z,30.6671,-87.9365,22.24,1111122 
DISL,ioos:station:DISL:MHPA:1,2012-11-03T23:00:00Z,30.6671,-87.9365,21.76,1111122 
DISL,ioos:station:DISL:MHPA:1,2012-11-03T23:30:00Z,30.6671,-87.9365,21.53,1111122 
DISL,ioos:station:DISL:MHPA:1,2012-11-04T00:00:00Z,30.6671,-87.9365,21.45,1111122 
DISL,ioos:station:DISL:MHPA:1,2012-11-04T00:30:00Z,30.6671,-87.9365,21.19,1111122 
DISL,ioos:station:DISL:MHPA:1,2012-11-04T01:00:00Z,30.6671,-87.9365,21.14,1111122 
DISL,ioos:station:DISL:MHPA:1,2012-11-04T01:30:00Z,30.6671,-87.9365,21.0,1111122 
DISL,ioos:station:DISL:MHPA:1,2012-11-04T02:00:00Z,30.6671,-87.9365,21.0,1111122 
DISL,ioos:station:DISL:MHPA:1,2012-11-04T02:30:00Z,30.6671,-87.9365,20.89,1111122 
DISL,ioos:station:DISL:MHPA:1,2012-11-04T03:00:00Z,30.6671,-87.9365,20.93,1111122 
DISL,ioos:station:DISL:MHPA:1,2012-11-04T03:30:00Z,30.6671,-87.9365,20.91,1111122 
DISL,ioos:station:DISL:MHPA:1,2012-11-04T04:00:00Z,30.6671,-87.9365,20.89,1111122 
DISL,ioos:station:DISL:MHPA:1,2012-11-04T04:30:00Z,30.6671,-87.9365,20.85,1111122 
DISL,ioos:station:DISL:MHPA:1,2012-11-04T05:00:00Z,30.6671,-87.9365,20.78,1111122 
DISL,ioos:station:DISL:MHPA:1,2012-11-04T05:30:00Z,30.6671,-87.9365,20.75,1111122 
DISL,ioos:station:DISL:MHPA:1,2012-11-04T06:00:00Z,30.6671,-87.9365,20.79,1111122 
DISL,ioos:station:DISL:MHPA:1,2012-11-04T06:30:00Z,30.6671,-87.9365,20.81,1111122 
DISL,ioos:station:DISL:MHPA:1,2012-11-04T07:00:00Z,30.6671,-87.9365,20.67,1111122 
DISL,ioos:station:DISL:MHPA:1,2012-11-04T07:30:00Z,30.6671,-87.9365,20.74,1111122 
DISL,ioos:station:DISL:MHPA:1,2012-11-04T08:00:00Z,30.6671,-87.9365,20.72,1111122 
DISL,ioos:station:DISL:MHPA:1,2012-11-04T08:30:00Z,30.6671,-87.9365,19.91,1111122 
DISL,ioos:station:DISL:MHPA:1,2012-11-04T09:00:00Z,30.6671,-87.9365,20.56,1111122 
DISL,ioos:station:DISL:MHPA:1,2012-11-04T09:30:00Z,30.6671,-87.9365,20.26,1111122 
DISL,ioos:station:DISL:MHPA:1,2012-11-04T10:00:00Z,30.6671,-87.9365,20.14,1111122 
DISL,ioos:station:DISL:MHPA:1,2012-11-04T10:30:00Z,30.6671,-87.9365,19.89,1111122 
DISL,ioos:station:DISL:MHPA:1,2012-11-04T11:00:00Z,30.6671,-87.9365,19.47,1111122 
DISL,ioos:station:DISL:MHPA:1,2012-11-04T11:30:00Z,30.6671,-87.9365,19.58,1111122 
DISL,ioos:station:DISL:MHPA:1,2012-11-04T12:00:00Z,30.6671,-87.9365,19.34,1111122 
DISL,ioos:station:DISL:MHPA:1,2012-11-04T12:30:00Z,30.6671,-87.9365,18.97,1111122 
DISL,ioos:station:DISL:MHPA:1,2012-11-04T13:00:00Z,30.6671,-87.9365,19.91,1111122 
DISL,ioos:station:DISL:MHPA:1,2012-11-04T13:30:00Z,30.6671,-87.9365,19.89,1111122 
DISL,ioos:station:DISL:MHPA:1,2012-11-04T14:00:00Z,30.6671,-87.9365,19.7,1111122 
DISL,ioos:station:DISL:MHPA:1,2012-11-04T14:30:00Z,30.6671,-87.9365,20.06,1111122 
DISL,ioos:station:DISL:MHPA:1,2012-11-04T15:00:00Z,30.6671,-87.9365,20.44,1111122 
DISL,ioos:station:DISL:MHPA:1,2012-11-04T15:30:00Z,30.6671,-87.9365,21.2,1111122 
DISL,ioos:station:DISL:MHPA:1,2012-11-04T16:00:00Z,30.6671,-87.9365,21.83,1111122 
DISL,ioos:station:DISL:MHPA:1,2012-11-04T16:30:00Z,30.6671,-87.9365,22.63,1111122 
DISL,ioos:station:DISL:MHPA:1,2012-11-04T17:00:00Z,30.6671,-87.9365,23.2,1111122 
DISL,ioos:station:DISL:MHPA:1,2012-11-04T17:30:00Z,30.6671,-87.9365,23.75,1111122 
DISL,ioos:station:DISL:MHPA:1,2012-11-04T18:00:00Z,30.6671,-87.9365,24.31,1111122 
DISL,ioos:station:DISL:MHPA:1,2012-11-04T18:30:00Z,30.6671,-87.9365,24.33,1111122 
DISL,ioos:station:DISL:MHPA:1,2012-11-04T19:00:00Z,30.6671,-87.9365,24.04,1111122 
DISL,ioos:station:DISL:MHPA:1,2012-11-04T19:30:00Z,30.6671,-87.9365,24.09,1111122 
DISL,ioos:station:DISL:MHPA:1,2012-11-04T20:00:00Z,30.6671,-87.9365,23.08,1111122 
DISL,ioos:station:DISL:MHPA:1,2012-11-04T20:30:00Z,30.6671,-87.9365,21.97,1111122 
DISL,ioos:station:DISL:MHPA:1,2012-11-04T21:00:00Z,30.6671,-87.9365,21.43,1111122 
DISL,ioos:station:DISL:MHPA:1,2012-11-04T21:30:00Z,30.6671,-87.9365,21.26,1111122 
DISL,ioos:station:DISL:MHPA:1,2012-11-04T22:00:00Z,30.6671,-87.9365,21.16,1111122 
DISL,ioos:station:DISL:MHPA:1,2012-11-04T22:30:00Z,30.6671,-87.9365,21.0,1111122 
DISL,ioos:station:DISL:MHPA:1,2012-11-04T23:00:00Z,30.6671,-87.9365,20.58,1111122 
DISL,ioos:station:DISL:MHPA:1,2012-11-04T23:30:00Z,30.6671,-87.9365,20.05,1111122 
DISL,ioos:station:DISL:MHPA:1,2012-11-05T00:00:00Z,30.6671,-87.9365,19.6,1111122 
DISL,ioos:station:DISL:MHPA:1,2012-11-05T00:30:00Z,30.6671,-87.9365,19.23,1111122 
DISL,ioos:station:DISL:MHPA:1,2012-11-05T01:00:00Z,30.6671,-87.9365,19.08,1111122 
DISL,ioos:station:DISL:MHPA:1,2012-11-05T01:30:00Z,30.6671,-87.9365,18.72,1111122 
DISL,ioos:station:DISL:MHPA:1,2012-11-05T02:00:00Z,30.6671,-87.9365,18.09,1111122 
DISL,ioos:station:DISL:MHPA:1,2012-11-05T02:30:00Z,30.6671,-87.9365,17.87,1111122 
DISL,ioos:station:DISL:MHPA:1,2012-11-05T03:00:00Z,30.6671,-87.9365,17.57,1111122 
DISL,ioos:station:DISL:MHPA:1,2012-11-05T03:30:00Z,30.6671,-87.9365,17.28,1111122 
DISL,ioos:station:DISL:MHPA:1,2012-11-05T04:00:00Z,30.6671,-87.9365,17.16,1111122 
DISL,ioos:station:DISL:MHPA:1,2012-11-05T04:30:00Z,30.6671,-87.9365,16.73,1111122 
DISL,ioos:station:DISL:MHPA:1,2012-11-05T05:00:00Z,30.6671,-87.9365,16.52,1111122 
DISL,ioos:station:DISL:MHPA:1,2012-11-05T05:30:00Z,30.6671,-87.9365,16.14,1111122 
DISL,ioos:station:DISL:MHPA:1,2012-11-05T06:00:00Z,30.6671,-87.9365,15.64,1111122 
DISL,ioos:station:DISL:MHPA:1,2012-11-05T06:30:00Z,30.6671,-87.9365,15.43,1111122 
DISL,ioos:station:DISL:MHPA:1,2012-11-05T07:00:00Z,30.6671,-87.9365,15.18,1111122 
DISL,ioos:station:DISL:MHPA:1,2012-11-05T07:30:00Z,30.6671,-87.9365,14.88,1111122 
DISL,ioos:station:DISL:MHPA:1,2012-11-05T08:00:00Z,30.6671,-87.9365,14.44,1111122 
DISL,ioos:station:DISL:MHPA:1,2012-11-05T08:30:00Z,30.6671,-87.9365,14.08,1111122 
DISL,ioos:station:DISL:MHPA:1,2012-11-05T09:00:00Z,30.6671,-87.9365,13.58,1111122 
DISL,ioos:station:DISL:MHPA:1,2012-11-05T09:30:00Z,30.6671,-87.9365,13.32,1111122 
DISL,ioos:station:DISL:MHPA:1,2012-11-05T10:00:00Z,30.6671,-87.9365,13.15,1111122 
DISL,ioos:station:DISL:MHPA:1,2012-11-05T10:30:00Z,30.6671,-87.9365,12.82,1111122 
DISL,ioos:station:DISL:MHPA:1,2012-11-05T11:00:00Z,30.6671,-87.9365,12.44,1111122 
DISL,ioos:station:DISL:MHPA:1,2012-11-05T11:30:00Z,30.6671,-87.9365,11.9,1111122 
DISL,ioos:station:DISL:MHPA:1,2012-11-05T12:00:00Z,30.6671,-87.9365,11.84,1111122 
DISL,ioos:station:DISL:MHPA:1,2012-11-05T12:30:00Z,30.6671,-87.9365,11.64,1111122 
DISL,ioos:station:DISL:MHPA:1,2012-11-05T13:00:00Z,30.6671,-87.9365,12.25,1111122 
DISL,ioos:station:DISL:MHPA:1,2012-11-05T13:30:00Z,30.6671,-87.9365,12.77,1111122 
DISL,ioos:station:DISL:MHPA:1,2012-11-05T14:00:00Z,30.6671,-87.9365,13.32,1111122 
DISL,ioos:station:DISL:MHPA:1,2012-11-05T14:30:00Z,30.6671,-87.9365,14.17,1111122 
DISL,ioos:station:DISL:MHPA:1,2012-11-05T15:00:00Z,30.6671,-87.9365,14.78,1111122 
DISL,ioos:station:DISL:MHPA:1,2012-11-05T15:30:00Z,30.6671,-87.9365,15.95,1111122 
DISL,ioos:station:DISL:MHPA:1,2012-11-05T16:00:00Z,30.6671,-87.9365,17.03,1111122 
DISL,ioos:station:DISL:MHPA:1,2012-11-05T16:30:00Z,30.6671,-87.9365,18.14,1111122 
DISL,ioos:station:DISL:MHPA:1,2012-11-05T17:00:00Z,30.6671,-87.9365,18.63,1111122 
DISL,ioos:station:DISL:MHPA:1,2012-11-05T17:30:00Z,30.6671,-87.9365,17.78,1111122 
DISL,ioos:station:DISL:MHPA:1,2012-11-05T18:00:00Z,30.6671,-87.9365,18.73,1111122 
DISL,ioos:station:DISL:MHPA:1,2012-11-05T18:30:00Z,30.6671,-87.9365,19.11,1111122 
DISL,ioos:station:DISL:MHPA:1,2012-11-05T19:00:00Z,30.6671,-87.9365,19.28,1111122 
DISL,ioos:station:DISL:MHPA:1,2012-11-05T19:30:00Z,30.6671,-87.9365,20.18,1111122 
DISL,ioos:station:DISL:MHPA:1,2012-11-05T20:00:00Z,30.6671,-87.9365,19.98,1111122 
DISL,ioos:station:DISL:MHPA:1,2012-11-05T20:30:00Z,30.6671,-87.9365,19.79,1111122 
DISL,ioos:station:DISL:MHPA:1,2012-11-05T21:00:00Z,30.6671,-87.9365,20.1,1111122 
DISL,ioos:station:DISL:MHPA:1,2012-11-05T21:30:00Z,30.6671,-87.9365,19.32,1111122 
DISL,ioos:station:DISL:MHPA:1,2012-11-05T22:00:00Z,30.6671,-87.9365,18.31,1111122 
DISL,ioos:station:DISL:MHPA:1,2012-11-05T22:30:00Z,30.6671,-87.9365,17.36,1111122 
DISL,ioos:station:DISL:MHPA:1,2012-11-05T23:00:00Z,30.6671,-87.9365,16.65,1111122 
DISL,ioos:station:DISL:MHPA:1,2012-11-05T23:30:00Z,30.6671,-87.9365,16.42,1111122 
DISL,ioos:station:DISL:MHPA:1,2012-11-06T00:00:00Z,30.6671,-87.9365,16.32,1111122 
DISL,ioos:station:DISL:MHPA:1,2012-11-06T00:30:00Z,30.6671,-87.9365,16.51,1111122 
DISL,ioos:station:DISL:MHPA:1,2012-11-06T01:00:00Z,30.6671,-87.9365,16.65,1111122 
DISL,ioos:station:DISL:MHPA:1,2012-11-06T01:30:00Z,30.6671,-87.9365,16.77,1111122 
DISL,ioos:station:DISL:MHPA:1,2012-11-06T02:00:00Z,30.6671,-87.9365,16.36,1111122 
DISL,ioos:station:DISL:MHPA:1,2012-11-06T02:30:00Z,30.6671,-87.9365,16.08,1111122 
DISL,ioos:station:DISL:MHPA:1,2012-11-06T03:00:00Z,30.6671,-87.9365,16.02,1111122 
DISL,ioos:station:DISL:MHPA:1,2012-11-06T03:30:00Z,30.6671,-87.9365,15.54,1111122 
DISL,ioos:station:DISL:MHPA:1,2012-11-06T04:00:00Z,30.6671,-87.9365,15.12,1111122 
DISL,ioos:station:DISL:MHPA:1,2012-11-06T04:30:00Z,30.6671,-87.9365,15.28,1111122 
DISL,ioos:station:DISL:MHPA:1,2012-11-06T05:00:00Z,30.6671,-87.9365,14.39,1111122 
DISL,ioos:station:DISL:MHPA:1,2012-11-06T05:30:00Z,30.6671,-87.9365,14.11,1111122 
DISL,ioos:station:DISL:MHPA:1,2012-11-06T06:00:00Z,30.6671,-87.9365,13.57,1111122 
DISL,ioos:station:DISL:MHPA:1,2012-11-06T06:30:00Z,30.6671,-87.9365,12.89,1111122 
DISL,ioos:station:DISL:MHPA:1,2012-11-06T07:00:00Z,30.6671,-87.9365,12.6,1111122 
DISL,ioos:station:DISL:MHPA:1,2012-11-06T07:30:00Z,30.6671,-87.9365,12.26,1111122 
DISL,ioos:station:DISL:MHPA:1,2012-11-06T08:00:00Z,30.6671,-87.9365,12.12,1111122 
DISL,ioos:station:DISL:MHPA:1,2012-11-06T08:30:00Z,30.6671,-87.9365,12.03,1111122 
DISL,ioos:station:DISL:MHPA:1,2012-11-06T09:00:00Z,30.6671,-87.9365,11.68,1111122 
DISL,ioos:station:DISL:MHPA:1,2012-11-06T09:30:00Z,30.6671,-87.9365,11.28,1111122 
DISL,ioos:station:DISL:MHPA:1,2012-11-06T10:00:00Z,30.6671,-87.9365,11.19,1111122 
DISL,ioos:station:DISL:MHPA:1,2012-11-06T10:30:00Z,30.6671,-87.9365,10.91,1111122 
DISL,ioos:station:DISL:MHPA:1,2012-11-06T11:00:00Z,30.6671,-87.9365,10.97,1111122 
DISL,ioos:station:DISL:MHPA:1,2012-11-06T11:30:00Z,30.6671,-87.9365,10.87,1111122 
DISL,ioos:station:DISL:MHPA:1,2012-11-06T12:00:00Z,30.6671,-87.9365,10.91,1111122 
DISL,ioos:station:DISL:MHPA:1,2012-11-06T12:30:00Z,30.6671,-87.9365,10.9,1111122 
DISL,ioos:station:DISL:MHPA:1,2012-11-06T13:00:00Z,30.6671,-87.9365,10.9,1111122 
DISL,ioos:station:DISL:MHPA:1,2012-11-06T13:30:00Z,30.6671,-87.9365,11.03,1111122 
DISL,ioos:station:DISL:MHPA:1,2012-11-06T14:00:00Z,30.6671,-87.9365,10.83,1111122 
DISL,ioos:station:DISL:MHPA:1,2012-11-06T14:30:00Z,30.6671,-87.9365,10.98,1111122 
DISL,ioos:station:DISL:MHPA:1,2012-11-06T15:00:00Z,30.6671,-87.9365,11.43,1111122 
DISL,ioos:station:DISL:MHPA:1,2012-11-06T15:30:00Z,30.6671,-87.9365,11.68,1111122 
DISL,ioos:station:DISL:MHPA:1,2012-11-06T16:00:00Z,30.6671,-87.9365,12.15,1111122 
DISL,ioos:station:DISL:MHPA:1,2012-11-06T16:30:00Z,30.6671,-87.9365,12.9,1111122 
DISL,ioos:station:DISL:MHPA:1,2012-11-06T17:00:00Z,30.6671,-87.9365,13.24,1111122 
DISL,ioos:station:DISL:MHPA:1,2012-11-06T17:30:00Z,30.6671,-87.9365,13.67,1111122 
DISL,ioos:station:DISL:MHPA:1,2012-11-06T18:00:00Z,30.6671,-87.9365,14.22,1111122 
DISL,ioos:station:DISL:MHPA:1,2012-11-06T18:30:00Z,30.6671,-87.9365,14.64,1111122 
DISL,ioos:station:DISL:MHPA:1,2012-11-06T19:00:00Z,30.6671,-87.9365,15.62,1111122 
DISL,ioos:station:DISL:MHPA:1,2012-11-06T19:30:00Z,30.6671,-87.9365,16.04,1111122 
DISL,ioos:station:DISL:MHPA:1,2012-11-06T20:00:00Z,30.6671,-87.9365,16.26,1111122 
DISL,ioos:station:DISL:MHPA:1,2012-11-06T20:30:00Z,30.6671,-87.9365,16.71,1111122 
DISL,ioos:station:DISL:MHPA:1,2012-11-06T21:00:00Z,30.6671,-87.9365,16.35,1111122 
DISL,ioos:station:DISL:MHPA:1,2012-11-06T21:30:00Z,30.6671,-87.9365,16.54,1111122 
DISL,ioos:station:DISL:MHPA:1,2012-11-06T22:00:00Z,30.6671,-87.9365,15.77,1111122 
DISL,ioos:station:DISL:MHPA:1,2012-11-06T22:30:00Z,30.6671,-87.9365,15.37,1111122 
DISL,ioos:station:DISL:MHPA:1,2012-11-06T23:00:00Z,30.6671,-87.9365,14.33,1111122 
DISL,ioos:station:DISL:MHPA:1,2012-11-06T23:30:00Z,30.6671,-87.9365,13.51,1111122 